Regional Weather Roundup
Issued by NWS

Home | Current Version | Previous Version | Graphics & Text | Print | Product List | Glossary On
Versions: 1 2 3 4 5 6 7 8 9 10 11 12 13 14 15 16 17 18 19 20 21 22 23 24 25 26 27 28 29 30 31 32 33 34 35 36 37 38 39 40 41 42 43 44 45 46 47 48 49 50
883
ASUS43 KIND 291859
RWRIN

WEATHER ROUNDUP FOR INDIANA
NATIONAL WEATHER SERVICE INDIANAPOLIS IN
300 PM EDT SAT APR 29 2017

NOTE: "FAIR" INDICATES FEW OR NO CLOUDS BELOW 12,000 FEET WITH NO
SIGNIFICANT WEATHER AND/OR OBSTRUCTIONS TO VISIBILITY.

* - STATION DOES NOT REPORT WEATHER SUCH AS PRECIPITATION OR FOG.

+ - STATION NOT QUALITY CONTROLLED BY THE NATIONAL WEATHER SERVICE.
    USE DATA WITH CAUTION...ESPECIALLY DEWPOINT AND RELATIVE
    HUMIDITY OBSERVATIONS.

INZ001>003-010>013-019-020-292000-
NORTHWEST INDIANA

CITY           SKY/WX    TMP DP  RH WIND       PRES   REMARKS
GARY /AIRPORT/ LGT RAIN  43  39  87 N17G35    30.11F
MICHIGAN CITY+ MIX PCPN  45  45 100 N15       30.10F
MONTICELLO +   CLOUDY    53  52  95 NE8G16    30.06F
RENSSELAER +   CLOUDY    52  48  87 NE18      30.05F

$$

LMZ046-743>745-292000-
SOUTHERN LAKE MICHIGAN

STATION/POSITION TIME  TEMP    WIND        PRES    WAVE
                       AIR SEA DIR/SP/G            HT
                 (UTC) (F)     (DEG/KT/KT) (MB)    (FT)
BURNS HARBOR     1840   43      20/ 25/ 27 1019.3F
MICHIGAN CITY    1830   42      10/ 24/ 26   N/A
5NW MICH CITY    1850   42 47                N/A     6

$$

INZ004-005-014>016-021>024-292000-
NORTH CENTRAL INDIANA

CITY           SKY/WX    TMP DP  RH WIND       PRES   REMARKS
ELKHART        PTSUNNY   54  46  76 NE16      30.09F
GOSHEN         LGT RAIN  52  45  77 E15G28    30.10F
SOUTH BEND     CLOUDY    52  46  80 NE15G21   30.12F

$$

INZ006>009-017-018-025>027-292000-
NORTHEAST INDIANA

CITY           SKY/WX    TMP DP  RH WIND       PRES   REMARKS
ANGOLA *+      CLOUDY    48  39  71 E9        30.15S
FORT WAYNE     CLOUDY    51  48  89 E15       30.13F
KENDALLVILLE + DRIZZLE   48  47  95 E12       30.16R

$$

INZ028-029-035-036-043>045-051>053-292000-
WEST CENTRAL INDIANA

CITY           SKY/WX    TMP DP  RH WIND       PRES   REMARKS
CRAWFORDSVL +  CLOUDY    61  61 100 NE8       30.00F
GREENCASTLE +  CLOUDY    70  64  83 SE8       30.00F
LAFAYETTE      CLOUDY    56  55  97 NE12      30.04F
TERRE HAUTE    CLOUDY    72  65  78 E12       29.96F

$$

INZ030>032-037>040-046>048-054>057-064-065-292000-
CENTRAL INDIANA

CITY           SKY/WX    TMP DP  RH WIND       PRES   REMARKS
COLUMBUS       PTSUNNY   73  64  73 SE9       30.02F
INDIANAPOLIS   CLOUDY    71  63  75 SE9       30.01F
-EAGLE CREEK   PTSUNNY   70  64  81 SE9       30.01F
KOKOMO +       CLOUDY    56  54  93 NE20G25   30.06F
SHELBYVILLE    CLOUDY    74  63  68 SE8       30.01F

$$

INZ033-034-041-042-049-050-058-059-292000-
EAST CENTRAL INDIANA

CITY           SKY/WX    TMP DP  RH WIND       PRES   REMARKS
MUNCIE         CLOUDY    64  60  87 NE9       30.07R
RICHMOND +     MOSUNNY   70  63  78 SE8       30.07F

$$

INZ060-061-067>069-081>083-085>088-292000-
SOUTHWEST INDIANA

CITY           SKY/WX    TMP DP  RH WIND       PRES   REMARKS
EVANSVILLE     MOSUNNY   80  67  64 SE9G20    29.93F

$$

INZ062-063-066-070>080-084-089>092-292000-
SOUTH CENTRAL AND SOUTHEAST INDIANA

CITY           SKY/WX    TMP DP  RH WIND       PRES   REMARKS
BLOOMINGTON    CLOUDY    74  64  71 E10       29.99F
MADISON *+     MOSUNNY   77  63  61 E7        30.05F
SEYMOUR +      MOSUNNY  N/A N/A N/A SE8       30.02F

$$





USA.gov is the U.S. government's official web portal to all federal, state and local government web resources and services.